TimePDT,TemperatureF,Dew PointF,Humidity,Sea Level PressureIn,VisibilityMPH,Wind Direction,Wind SpeedMPH,Gust SpeedMPH,PrecipitationIn,Events,Conditions,WindDirDegrees,DateUTC
12:53 AM,46.0,26.1,46,29.89,10.0,SSW,9.2,-,N/A,,Clear,210,2013-05-25 07:53:00
1:53 AM,46.9,25.0,42,29.89,10.0,SSW,5.8,-,N/A,,Clear,210,2013-05-25 08:53:00
2:53 AM,39.0,25.0,57,29.90,10.0,Calm,Calm,-,N/A,,Clear,0,2013-05-25 09:53:00
3:53 AM,34.0,25.0,70,29.91,10.0,Calm,Calm,-,N/A,,Clear,0,2013-05-25 10:53:00
4:53 AM,33.1,24.1,70,29.93,10.0,Calm,Calm,-,N/A,,Clear,0,2013-05-25 11:53:00
5:53 AM,32.0,23.0,69,29.94,10.0,Calm,Calm,-,N/A,,Clear,0,2013-05-25 12:53:00
6:53 AM,35.1,21.9,59,29.94,10.0,Calm,Calm,-,N/A,,Clear,0,2013-05-25 13:53:00
7:53 AM,48.0,19.9,33,29.92,10.0,Calm,Calm,-,N/A,,Clear,0,2013-05-25 14:53:00
8:53 AM,54.0,14.0,21,29.91,10.0,NE,4.6,-,N/A,,Clear,50,2013-05-25 15:53:00
9:03 AM,55.4,14.0,20,30.03,10.0,ESE,3.5,-,N/A,,Partly Cloudy,120,2013-05-25 16:03:00
9:53 AM,55.9,12.9,18,29.92,10.0,South,9.2,-,N/A,,Clear,190,2013-05-25 16:53:00
10:53 AM,59.0,16.0,19,29.92,10.0,South,15.0,19.6,N/A,,Clear,180,2013-05-25 17:53:00
11:53 AM,60.1,16.0,18,29.91,10.0,SW,8.1,21.9,N/A,,Clear,230,2013-05-25 18:53:00
12:53 PM,62.1,19.0,19,29.91,10.0,SSW,10.4,17.3,N/A,,Clear,200,2013-05-25 19:53:00
1:53 PM,61.0,21.0,21,29.91,10.0,SSW,8.1,18.4,N/A,,Clear,210,2013-05-25 20:53:00
2:53 PM,62.1,26.1,25,29.93,10.0,SSW,11.5,24.2,N/A,,Clear,210,2013-05-25 21:53:00
3:53 PM,61.0,26.1,26,29.94,10.0,SSW,8.1,20.7,N/A,,Clear,210,2013-05-25 22:53:00
4:53 PM,60.1,26.1,27,29.94,10.0,SSW,12.7,18.4,N/A,,Clear,210,2013-05-25 23:53:00
5:53 PM,57.9,28.9,33,29.96,10.0,SSW,8.1,16.1,N/A,,Clear,200,2013-05-26 00:53:00
6:53 PM,55.0,30.9,40,29.97,10.0,SW,9.2,-,N/A,,Clear,220,2013-05-26 01:53:00
7:53 PM,52.0,32.0,47,29.96,10.0,Variable,4.6,-,N/A,,Clear,0,2013-05-26 02:53:00
8:53 PM,48.9,32.0,52,29.96,10.0,SSW,5.8,-,N/A,,Clear,210,2013-05-26 03:53:00
9:53 PM,46.9,32.0,56,29.97,10.0,SSW,9.2,-,N/A,,Clear,210,2013-05-26 04:53:00
10:53 PM,46.9,30.9,54,29.96,10.0,SSW,6.9,-,N/A,,Clear,200,2013-05-26 05:53:00
11:53 PM,46.9,26.1,44,29.96,10.0,SSW,6.9,-,N/A,,Clear,210,2013-05-26 06:53:00